Powrót do katalogu

FENGYUN 1C DEB

AktywnySSO
NORAD 30297·DEBRIS·🇨🇳 China

Wystrzelony May 10, 1999 z Taiyuan Satellite Launch Center

Loading…

Następne Przeloty (najbliższe 24 godziny)

TLE

ŚwieżeSource: Space-Track

Epoka: Sep 14, 2026, 08:29 UTC

1 30297U 99025ZJ  26257.35353324  .00009024  00000-0  18488-2 0  9992
2 30297  98.8335 216.0579 0361968  35.9445 114.5073 14.27010076990773

Śledź FENGYUN 1C DEB w czasie rzeczywistym z AllMySat

Download on the App Store